Meteo Giornale » Osservazioni meteo Stati Uniti (USA) » Hydaburg Seaplane
ore: 22:56 - Osservazioni Meteo Hydaburg Seaplane
Lat. 55° 12' N Lon. 132° 50' W Alt. 0 metri s.l.m.
13 °C
Pioggia
Temp. 24 Ore
12 °C
15 °C
Est/Sud-Est
20.3 Km/h
Dew point 11 °C
Umidità 87 %
Visibilità 10 Km
Il sole sorge alle ore 05:56
Il sole tramonta alle ore 19:46
| Data e Ora | Cielo e Fenomeni | T °C | DP °C | Um. % | Pres. hPa | Vis. km | Vento km/h | |
|---|---|---|---|---|---|---|---|---|
| Oggi h: 22:56 | Pioggia | 13 | 11 | 87 | 1002 | 10 | E/SE 20.3 | |
| Oggi h: 22:53 | Pioggia | 13 | 11 | 87 | 1002 | 10 | E/SE 18.5 | |
| Oggi h: 21:56 | Pioggia Foschia | 13 | 12 | 93 | 1002 | 10 | E/SE 20.3 | |
| Oggi h: 21:35 | Pioggia | 13 | 11 | 87 | 1002 | 10 | E 25.9 | |
| Oggi h: 20:56 | Pioggia | 13 | 11 | 87 | 1003 | 10 | E 20.3 | |
| Oggi h: 19:56 | Pioggia | 14 | 12 | 87 | 1003 | 10 | E/SE 29.6 | |
| Oggi h: 17:26 | Coperto | 14 | 11 | 82 | 1005 | 10 | SE 22.2 | |
| Oggi h: 16:56 | Pioggia | 13 | 11 | 87 | 1005 | 13 | S 9.3 | |
| Oggi h: 15:56 | Coperto | 15 | 11 | 76 | 1005 | 10 | S/SE 14.8 | |
| Oggi h: 15:53 | Pioggia | 15 | 11 | 76 | 1005 | 10 | S/SE 14.8 | |
| Oggi h: 14:56 | Pioggia | 14 | 11 | 82 | 1006 | 13 | N 5.5 | |
| Oggi h: 13:56 | Coperto | 15 | 11 | 76 | 1006 | 10 | S/SE 14.8 | |
| Oggi h: 13:39 | Coperto | 15 | 11 | 76 | 1006 | 10 | SE 16.7 | |
| Oggi h: 12:56 | Coperto | 14 | 12 | 87 | 1006 | 10 | SE 18.5 | |
| Oggi h: 12:29 | Coperto | 14 | 12 | 87 | 1006 | 10 | E/SE 16.7 | |
| Oggi h: 11:56 | Coperto | 14 | 12 | 87 | 1006 | 10 | SE 13 | |
| Oggi h: 11:31 | Coperto | 14 | 12 | 87 | 1007 | 10 | E/SE 13 | |
| Oggi h: 10:38 | Coperto | 14 | 12 | 87 | 1007 | 10 | SE 9.3 | |
| Oggi h: 09:56 | Coperto | 13 | 12 | 93 | 1007 | 10 | N 0 | |
| Oggi h: 09:39 | Coperto | 13 | 12 | 93 | 1007 | 10 | N 0 | |
| Oggi h: 09:17 | Coperto | 13 | 12 | 93 | 1007 | 10 | N 0 | |
| Oggi h: 08:56 | Coperto | 13 | 12 | 93 | 1007 | 10 | N 0 | |
| Oggi h: 08:29 | Coperto | 13 | 11 | 87 | 1007 | 10 | N 0 | |
| Oggi h: 08:20 | Coperto | 13 | 12 | 93 | 1007 | 10 | N 0 | |
| Oggi h: 07:31 | Coperto | 12 | 12 | 100 | 1007 | 10 | N 0 | |
| Oggi h: 06:56 | Coperto | 12 | 12 | 100 | 1007 | 14 | N 0 | |
| Oggi h: 06:20 | Foschia | 12 | 12 | 100 | 1008 | 8 | N 0 | |
| Oggi h: 05:56 | Coperto | 12 | 12 | 100 | 1008 | 10 | N 0 | |
| Oggi h: 05:42 | Coperto | 12 | 12 | 100 | 1008 | 10 | N 0 | |
| Oggi h: 05:06 | Coperto | 12 | 12 | 100 | 1008 | 10 | N 0 | |
| Oggi h: 04:56 | Coperto | 12 | 11 | 93 | 1008 | 10 | N 5.5 | |
| Oggi h: 03:56 | Molto Nuvoloso | 12 | 12 | 100 | 1008 | 10 | N 5.5 | |
| Oggi h: 03:10 | Molto Nuvoloso | 12 | 12 | 100 | 1008 | 10 | N 0 | |
| Oggi h: 03:04 | Molto Nuvoloso | 12 | 12 | 100 | 1008 | 10 | N 0 | |
| Oggi h: 02:56 | Molto Nuvoloso | 12 | 11 | 93 | 1008 | 10 | N 0 | |
| Oggi h: 02:23 | Coperto | 12 | 12 | 100 | 1009 | 10 | N 0 | |
| Oggi h: 01:56 | Coperto | 12 | 11 | 93 | 1009 | 10 | N 0 | |
| Oggi h: 00:56 | Molto Nuvoloso | 12 | 12 | 100 | 1009 | 10 | N 0 | |
| Ieri h: 23:56 | Molto Nuvoloso | 12 | 12 | 100 | 1010 | 10 | N 0 | |



